When you browse on this site, cookies collect data to enhance your experience and personalize the content and advertising you see.
Visit our Privacy Policy to learn more. By continuing to use the site, you agree to this use of cookies and data.
  • In Austria
  • List of Countries
  • For 7 days
  • Water Temperature
  • Satellite Maps
  • Weather Map
  • News
  • Weather Widgets
  • user-avatar
    Login

    Hourly Weather San Miguel de Tucumán

    Today, 21 April, Sunday

    Time Temperature Precipitation Wind Pressure Humidity
    00:00 +24°C° 0.4 mm 1 mps 719 mmHg 98%
    01:00 +24°C° 0.4 mm 1 mps 719 mmHg 98%
    02:00 +23°C° 0.4 mm 1 mps 719 mmHg 98%
    03:00 +23°C° 0.3 mm 1 mps 719 mmHg 98%
    04:00 +23°C° 0.3 mm 1 mps 719 mmHg 98%
    05:00 +23°C° 0.3 mm 1 mps 719 mmHg 98%
    06:00 +23°C° 0.6 mm 1 mps 719 mmHg 97%
    07:00 +23°C° 0.6 mm 2 mps 719 mmHg 97%
    08:00 +23°C° 0.6 mm 2 mps 720 mmHg 97%
    09:00 +21°C° 0.2 mm 2 mps 720 mmHg 96%
    10:00 +20°C° 0.2 mm 2 mps 720 mmHg 96%
    11:00 +20°C° 0.2 mm 2 mps 720 mmHg 96%
    12:00 +20°C° 0.1 mm 2 mps 720 mmHg 96%
    13:00 +19°C° 0.1 mm 2 mps 719 mmHg 95%
    14:00 +19°C° 0.1 mm 2 mps 718 mmHg 95%
    15:00 +19°C° 0.1 mm 2 mps 718 mmHg 95%
    16:00 +18°C° 0.1 mm 2 mps 718 mmHg 95%
    17:00 +18°C° 0.1 mm 2 mps 718 mmHg 96%
    18:00 +18°C° 0.2 mm 2 mps 719 mmHg 96%
    19:00 +18°C° 0.2 mm 2 mps 719 mmHg 97%
    20:00 +18°C° 0.2 mm 2 mps 720 mmHg 97%
    21:00 +17°C° 0.1 mm 2 mps 720 mmHg 97%
    22:00 +17°C° 0.1 mm 2 mps 720 mmHg 97%
    23:00 +17°C° 0.1 mm 2 mps 721 mmHg 97%

    Tomorrow, 22 April, Monday

    Time Temperature Precipitation Wind Pressure Humidity
    00:00 +17°C° 0.1 mm 2 mps 720 mmHg 97%
    01:00 +17°C° 0.1 mm 2 mps 720 mmHg 97%
    02:00 +16°C° 0.1 mm 2 mps 720 mmHg 96%
    03:00 +16°C° 0.1 mm 2 mps 720 mmHg 96%
    04:00 +16°C° 0.1 mm 2 mps 720 mmHg 96%
    05:00 +16°C° 0.1 mm 2 mps 720 mmHg 96%
    06:00 +16°C° 0.1 mm 2 mps 720 mmHg 95%
    07:00 +16°C° 0.1 mm 2 mps 721 mmHg 94%
    08:00 +16°C° 0.1 mm 2 mps 721 mmHg 94%
    09:00 +16°C° 0.1 mm 2 mps 721 mmHg 93%
    10:00 +17°C° 0.1 mm 2 mps 721 mmHg 92%
    11:00 +17°C° 0.1 mm 2 mps 722 mmHg 91%
    12:00 +17°C° 0.1 mm 2 mps 721 mmHg 91%
    13:00 +17°C° 0.1 mm 2 mps 720 mmHg 91%
    14:00 +17°C° 0.1 mm 2 mps 719 mmHg 91%
    15:00 +18°C° 0.1 mm 1 mps 719 mmHg 92%
    16:00 +18°C° 0.1 mm 1 mps 719 mmHg 93%
    17:00 +18°C° 0.1 mm 1 mps 719 mmHg 93%
    18:00 +16°C° 0.1 mm 1 mps 720 mmHg 94%
    19:00 +16°C° 0.1 mm 1 mps 721 mmHg 94%
    20:00 +16°C° 0.1 mm 1 mps 721 mmHg 95%
    21:00 +16°C° 0 mm 1 mps 722 mmHg 95%
    22:00 +15°C° 0 mm 1 mps 722 mmHg 95%
    23:00 +14°C° 0 mm 0 mps 723 mmHg 95%

    Day after tomorrow, 23 April, Tuesday

    Time Temperature Precipitation Wind Pressure Humidity
    00:00 +15°C° 0 mm 1 mps 722 mmHg 95%
    01:00 +15°C° 0 mm 1 mps 722 mmHg 95%
    02:00 +15°C° 0 mm 1 mps 722 mmHg 95%
    03:00 +14°C° 0 mm 1 mps 721 mmHg 95%
    04:00 +13°C° 0 mm 0 mps 721 mmHg 95%
    05:00 +13°C° 0 mm 0 mps 721 mmHg 95%
    06:00 +13°C° 0 mm 0 mps 721 mmHg 94%
    07:00 +14°C° 0 mm 0 mps 722 mmHg 92%
    08:00 +14°C° 0 mm 0 mps 722 mmHg 90%
    09:00 +18°C° 0 mm 1 mps 722 mmHg 84%
    10:00 +19°C° 0 mm 1 mps 722 mmHg 79%
    11:00 +21°C° 0 mm 1 mps 723 mmHg 73%
    12:00 +20°C° 0 mm 2 mps 722 mmHg 73%
    13:00 +21°C° 0 mm 2 mps 721 mmHg 72%
    14:00 +21°C° 0 mm 2 mps 720 mmHg 72%
    15:00 +22°C° 0 mm 1 mps 720 mmHg 75%
    16:00 +21°C° 0 mm 1 mps 720 mmHg 78%
    17:00 +21°C° 0 mm 1 mps 720 mmHg 81%
    18:00 +20°C° 0 mm 1 mps 720 mmHg 85%
    19:00 +19°C° 0 mm 1 mps 721 mmHg 90%
    20:00 +18°C° 0 mm 1 mps 721 mmHg 94%
    21:00 +16°C° 0 mm 0 mps 722 mmHg 94%
    22:00 +16°C° 0 mm 0 mps 722 mmHg 94%
    23:00 +16°C° 0 mm 0 mps 723 mmHg 94%

    24 April, Wednesday

    Time Temperature Precipitation Wind Pressure Humidity
    00:00 +16°C° 0 mm 0 mps 723 mmHg 94%
    01:00 +16°C° 0 mm 0 mps 722 mmHg 94%
    02:00 +16°C° 0 mm 0 mps 722 mmHg 94%
    03:00 +16°C° 0.1 mm 0 mps 722 mmHg 95%
    04:00 +18°C° 0.1 mm 1 mps 722 mmHg 95%
    05:00 +16°C° 0.1 mm 1 mps 722 mmHg 96%
    06:00 +18°C° 0 mm 1 mps 722 mmHg 95%
    07:00 +18°C° 0 mm 1 mps 723 mmHg 94%
    08:00 +18°C° 0 mm 1 mps 723 mmHg 93%
    09:00 +19°C° 0 mm 1 mps 723 mmHg 87%
    10:00 +20°C° 0 mm 1 mps 723 mmHg 81%
    11:00 +21°C° 0 mm 2 mps 723 mmHg 75%
    12:00 +20°C° 0.1 mm 2 mps 722 mmHg 78%
    13:00 +20°C° 0.1 mm 2 mps 721 mmHg 81%
    14:00 +19°C° 0.1 mm 2 mps 720 mmHg 85%
    15:00 +19°C° 0.1 mm 2 mps 720 mmHg 88%
    16:00 +19°C° 0.1 mm 1 mps 720 mmHg 90%
    17:00 +19°C° 0.1 mm 1 mps 720 mmHg 93%
    18:00 +19°C° 0.1 mm 1 mps 721 mmHg 94%
    19:00 +18°C° 0.1 mm 1 mps 722 mmHg 96%
    20:00 +18°C° 0.1 mm 1 mps 722 mmHg 97%
    21:00 +18°C° 0 mm 1 mps 723 mmHg 97%
    22:00 +16°C° 0 mm 0 mps 723 mmHg 97%
    23:00 +16°C° 0 mm 0 mps 723 mmHg 97%

    25 April, Thursday

    Time Temperature Precipitation Wind Pressure Humidity
    00:00 +16°C° 0 mm 0 mps 723 mmHg 97%
    01:00 +16°C° 0 mm 0 mps 723 mmHg 97%
    02:00 +15°C° 0 mm 0 mps 723 mmHg 96%
    03:00 +15°C° 0 mm 0 mps 722 mmHg 96%
    04:00 +15°C° 0 mm 0 mps 722 mmHg 96%
    05:00 +15°C° 0 mm 0 mps 722 mmHg 97%
    06:00 +15°C° 0 mm 0 mps 722 mmHg 95%
    07:00 +16°C° 0 mm 0 mps 723 mmHg 93%
    08:00 +16°C° 0 mm 0 mps 723 mmHg 92%
    09:00 +19°C° 0 mm 1 mps 723 mmHg 90%
    10:00 +20°C° 0 mm 1 mps 723 mmHg 88%
    11:00 +20°C° 0 mm 1 mps 723 mmHg 85%
    12:00 +20°C° 0.1 mm 1 mps 722 mmHg 87%
    13:00 +20°C° 0.1 mm 1 mps 721 mmHg 88%
    14:00 +20°C° 0.1 mm 1 mps 721 mmHg 89%
    15:00 +20°C° 0.1 mm 1 mps 721 mmHg 91%
    16:00 +19°C° 0.1 mm 1 mps 720 mmHg 94%
    17:00 +19°C° 0.1 mm 1 mps 720 mmHg 96%
    18:00 +19°C° 0.2 mm 1 mps 721 mmHg 96%
    19:00 +19°C° 0.2 mm 1 mps 722 mmHg 97%
    20:00 +19°C° 0.2 mm 1 mps 722 mmHg 98%
    21:00 +17°C° 0.1 mm 0 mps 722 mmHg 98%
    22:00 +17°C° 0.1 mm 0 mps 723 mmHg 98%
    23:00 +16°C° 0.1 mm 0 mps 723 mmHg 98%

    26 April, Friday

    Time Temperature Precipitation Wind Pressure Humidity
    00:00 +16°C° 0 mm 0 mps 722 mmHg 97%
    01:00 +16°C° 0 mm 0 mps 722 mmHg 97%
    02:00 +16°C° 0 mm 0 mps 721 mmHg 97%
    03:00 +16°C° 0 mm 0 mps 721 mmHg 97%
    04:00 +15°C° 0 mm 0 mps 721 mmHg 96%
    05:00 +15°C° 0 mm 0 mps 721 mmHg 96%
    06:00 +16°C° 0 mm 0 mps 721 mmHg 94%
    07:00 +16°C° 0 mm 0 mps 722 mmHg 92%
    08:00 +17°C° 0 mm 0 mps 722 mmHg 90%
    09:00 +20°C° 0 mm 1 mps 722 mmHg 85%
    10:00 +22°C° 0 mm 1 mps 722 mmHg 80%
    11:00 +23°C° 0 mm 2 mps 722 mmHg 76%
    12:00 +23°C° 0 mm 2 mps 722 mmHg 77%
    13:00 +23°C° 0 mm 2 mps 721 mmHg 78%
    14:00 +23°C° 0 mm 2 mps 720 mmHg 78%
    15:00 +23°C° 0 mm 2 mps 720 mmHg 79%
    16:00 +23°C° 0 mm 1 mps 720 mmHg 79%
    17:00 +23°C° 0 mm 1 mps 720 mmHg 79%
    18:00 +21°C° 0 mm 1 mps 721 mmHg 84%
    19:00 +20°C° 0 mm 1 mps 722 mmHg 89%
    20:00 +19°C° 0 mm 1 mps 722 mmHg 94%
    21:00 +19°C° 0 mm 1 mps 723 mmHg 93%
    22:00 +19°C° 0 mm 1 mps 723 mmHg 91%
    23:00 +18°C° 0 mm 1 mps 723 mmHg 90%
    Show more